{"data":{"norad_id":67018,"epoch":"2026-05-24T16:19:38.385696Z","epoch_age_seconds":98598,"freshness":"FRESH","line1":"1 67018U 25293R   26144.68030539  .00003963  00000+0  33970-3 0  9999","line2":"2 67018  70.0009 262.7268 0003271 269.6277  90.4508 14.98338205 26271","mean_motion":14.98338205,"eccentricity":0.0003271,"inclination_deg":70.0009,"raan_deg":262.7268,"arg_perigee_deg":269.6277,"mean_anomaly_deg":90.4508,"bstar":0.0003397,"rev_number":2627,"period_min":96.106472837352,"perigee_km":569.75711797947,"apogee_km":574.3039175696,"semimajor_km":6950.1675177745,"source":"CELESTRAK","updated_at":"2026-05-25T13:38:21.432762Z"}}